STARLINK-32310, 61662

Orbit data source: Space-Track

STARLINK-32310, 61662 is a payload satellite owned by SpaceX/Seattle (US) in LEO that was launched on Sat, 26 Oct 2024 UTC via an FALCON 9 launch vehicle from the Air Force Eastern Test Range (AFETR). Payloads include a variety of satellites, spacecraft, and rockets equipped with specific instruments for various scientific and technological missions. These include communications satellites like Starlink; space stations such as the ISS; scientific satellites like the Hubble; Earth observation satellites from companies like Planet Labs, Umbra, and HawkEye 360; GPS; miniature CubeSats for education and research; and military/defense satellites.

Loading next visibility...
STARLINK-32310 details
Identifier
61662, 2024-193B
Orbit
LEO
Last TLE update13 hours ago
Origin
Flag of USSpaceX/Seattle (US)
ManufacturerSpaceX/Seattle
MissionOperational spacecraft
Bus & MotorSTARLINK V2M, Unknown motor
Mass730 kg wet, ~700 kg dry
Launch date (UTC)
2024-10-26 (2 months ago)
Launch vehicle
FALCON 9
Launch site
Air Force Eastern Test Range (AFETR)
Object type
Payload
Rocket body
Debris
Shape & HBRUnknown
Radar Cross SectionLarge (>1 m²)

Expand to show TLE details & history

TLE from 13 hours ago
0 STARLINK-32310
1 61662U 24193B   24361.35130189  .00001296  00000-0  42388-4 0  9993
2 61662  53.1607 329.2816 0000908 107.6487 252.4617 15.39611069  9384
Epoch: 2024-12-26T08:25Z
Definitive object data (Epoch: 2024-12-26T08:25:52.483Z)
Latitude-0.00002°
Longitude107.48096°
Altitude448.349 km
Speed7.644 km/s
True Right ascension21h 57m 07s
True Declination0° 00' 00"
Sunlit
Object was in daylight at TLE epoch
Visualization TLE readout
Latitude30.18974°
Longitude-100.77176°
Altitude448.456 km
Speed7.648 km/s
Apparent Right ascension08h 26m 25s
Apparent Declination-3° 29' 55"
Sunlit
Object is in full shadow
Visualization observer readout
Local Sidereal Time20:53:19
Azimuth11.223° NNE
Elevation-53.077°
Doppler factor1
Orbital elements
Apogee altitude448.136 km
Perigee altitude446.896 km
Semi-major axis6,825.653 km
Eccentricity0.0000908
Inclination53.1607°
RAAN329.2816°
Arg. of periapsis107.6487°
True anomaly252.45178°
Mean anomaly252.4617°
Eccentric anomaly252.45674°
Mean motion3.84881 °/min
BSTAR0.000042388
Orbital period93.54 mins
Loading maneuver chart data...
Loading historical data...
Loading historical data...
Loading historical data...
Loading historical data...
Loading historical data...
Loading historical data...
Loading historical data...

STARLINK-32310 Visibility forecast

Observer location: undefined°, undefined

Span
Click to sort rows by Start time (UTC) header in descending order
Start Az.
Max El. time (UTC)
Max El. Az.
Max El.
End time (UTC)
End Az.
5 mins2024-12-27 00:10:19.688Z192.372° SSW2024-12-27 00:13:19.688Z116.553° SE27.221°2024-12-27 00:15:19.688Z74.249° E
4 mins2024-12-27 01:48:19.688Z279.954° WNW2024-12-27 01:50:19.688Z334.591° NNW26.459°2024-12-27 01:52:19.688Z22.895° NE
5 mins2024-12-27 06:43:19.688Z340.733° N2024-12-27 06:45:19.688Z35.012° NE26.669°2024-12-27 06:48:19.688Z94.495° ESE
4 mins2024-12-27 08:21:19.688Z264.858° W2024-12-27 08:22:19.688Z233.428° WSW27.613°2024-12-27 08:25:19.688Z165.604° S
|